Location: ??????
(30.5519°N, 47.7720°E)
Time: 16:52:26
(UTC+00:00)

Meteor 2-19 Rocket - Pass Details

Date: 24 January 2021
Orbit: 935 x 959 km, 82.5° (Epoch: 02 March)

Event Time Altitude Azimuth Distance (km) Brightness Sun altitude
Rises 15:26:26 0° 177° (S) 3,620 7.6 -14.8°
Reaches altitude 10° 15:28:56 10° 175° (S) 2,679 6.9 -15.3°
Maximum altitude 15:35:01 68° 93° (E) 1,029 4.4 -16.6°
Drops below altitude 10° 15:41:08 10° 12° (NNE) 2,694 6.6 -17.9°
Sets 15:43:39 0° 10° (N) 3,642 7.3 -18.4°
